WB5CFT Weather Reports


time (UTC)temp
C
wind
direction
speed
KPH
gust
KPH
rain 1hr
cm
rain 24hr
cm
rain mn
cm
humidity
%
barometer
mb
20260507180316 17 79 0.0 0.0 0.00 0.00 0.00 51 1020.5
20260507175811 17 43 0.0 3.2 0.00 0.00 0.00 49 1020.7
20260507175308 16 302 1.6 3.2 0.00 0.00 0.00 51 1020.8
20260507174805 16 133 0.0 0.0 0.00 0.00 0.00 51 1020.9
20260507174303 16 175 0.0 0.0 0.00 0.00 0.00 53 1021.3
20260507173801 16 188 0.0 0.0 0.00 0.00 0.00 53 1021.1
20260507173258 16 172 0.0 0.0 0.00 0.00 0.00 54 1021.4
20260507172754 16 147 3.2 4.8 0.00 0.00 0.00 53 1021.3
20260507172251 16 91 4.8 4.8 0.00 0.00 0.00 52 1021.4
20260507171746 17 71 1.6 6.4 0.00 0.00 0.00 52 1021.4
20260507171244 16 70 0.0 0.0 0.00 0.00 0.00 52 1021.4
20260507170740 17 76 4.8 6.4 0.00 0.00 0.00 50 1021.6
20260507170237 16 195 0.0 0.0 0.00 0.00 0.00 51 1021.8
20260507165733 15 252 0.0 0.0 0.00 0.00 0.00 53 1021.7
20260507165229 15 239 0.0 1.6 0.00 0.00 0.00 54 1021.9
20260507164725 16 122 0.0 0.0 0.00 0.00 0.00 52 1021.9
20260507164223 15 84 0.0 0.0 0.00 0.00 0.00 53 1022.0
20260507163720 16 221 0.0 0.0 0.00 0.00 0.00 52 1022.1
20260507163218 15 214 0.0 0.0 0.00 0.00 0.00 54 1022.3
20260507162713 16 169 0.0 0.0 0.00 0.00 0.00 52 1022.4
20260507162209 15 144 0.0 0.0 0.00 0.00 0.00 54 1022.4
20260507161706 15 47 0.0 0.0 0.00 0.00 0.00 53 1022.5
20260507161203 15 22 0.0 0.0 0.00 0.00 0.00 54 1022.6
20260507160659 14 30 0.0 0.0 0.00 0.00 0.00 55 1022.6
20260507160156 14 294 0.0 0.0 0.00 0.00 0.00 55 1022.5
20260507155651 14 295 0.0 0.0 0.00 0.00 0.00 56 1022.6
20260507155148 15 299 1.6 3.2 0.00 0.00 0.00 55 1022.7
20260507154644 13 39 0.0 0.0 0.00 0.00 0.00 57 1022.7
20260507154143 14 327 0.0 0.0 0.00 0.00 0.00 56 1022.7
20260507153639 13 331 0.0 0.0 0.00 0.00 0.00 56 1022.6
20260507153135 13 344 4.8 4.8 0.00 0.00 0.00 56 1022.8
20260507152632 13 276 0.0 0.0 0.00 0.00 0.00 56 1022.9
20260507152127 13 276 0.0 0.0 0.00 0.00 0.00 57 1022.9
20260507151624 13 332 0.0 0.0 0.00 0.00 0.00 57 1022.9
20260507151121 13 352 0.0 0.0 0.00 0.00 0.00 58 1022.9
20260507150618 12 315 0.0 0.0 0.00 0.00 0.00 58 1023.1
20260507150114 12 297 0.0 0.0 0.00 0.00 0.00 57 1023.0
20260507145609 13 288 1.6 1.6 0.00 0.00 0.00 57 1023.1
20260507145108 12 277 1.6 3.2 0.00 0.00 0.00 58 1023.2
20260507144603 12 308 0.0 0.0 0.00 0.00 0.00 59 1023.2
20260507144102 12 316 3.2 4.8 0.00 0.00 0.00 58 1023.4
20260507143558 12 329 6.4 9.7 0.00 0.00 0.00 59 1023.5
20260507143056 12 299 0.0 0.0 0.00 0.00 0.00 59 1023.4
20260507142555 11 317 0.0 0.0 0.00 0.00 0.00 60 1023.4
20260507142053 11 313 0.0 0.0 0.00 0.00 0.00 60 1023.4
20260507141549 11 317 1.6 3.2 0.00 0.00 0.00 60 1023.6
20260507141046 11 304 0.0 1.6 0.00 0.00 0.00 61 1023.2
20260507140542 11 339 1.6 4.8 0.00 0.00 0.00 61 1023.6
20260507140040 11 304 1.6 1.6 0.00 0.00 0.00 61 1023.4
20260507135537 11 320 0.0 0.0 0.00 0.00 0.00 62 1023.6
20260507135034 11 306 0.0 0.0 0.00 0.00 0.00 63 1023.4
20260507134530 11 321 0.0 1.6 0.00 0.00 0.00 63 1023.5
20260507134026 11 348 0.0 0.0 0.00 0.00 0.00 64 1023.6
20260507133523 11 289 0.0 0.0 0.00 0.00 0.00 63 1023.6
20260507133021 11 346 0.0 0.0 0.00 0.00 0.00 64 1023.4
20260507132517 10 333 0.0 0.0 0.00 0.00 0.00 64 1023.4
20260507132013 10 325 3.2 9.7 0.00 0.00 0.00 64 1023.4
20260507131510 10 319 0.0 1.6 0.00 0.00 0.00 64 1023.4
20260507131008 10 356 1.6 1.6 0.00 0.00 0.00 64 1023.4
20260507130504 10 322 12.9 17.7 0.00 0.00 0.00 64 1023.0
20260507130003 10 300 0.0 0.0 0.00 0.00 0.00 64 1023.0
20260507125501 10 328 0.0 1.6 0.00 0.00 0.00 64 1022.9
20260507124958 10 295 4.8 6.4 0.00 0.00 0.00 64 1022.8
20260507124454 10 350 0.0 1.6 0.00 0.00 0.00 64 1022.8
20260507123952 10 276 4.8 6.4 0.00 0.00 0.00 64 1022.8
20260507123450 10 1 11.3 16.1 0.00 0.00 0.00 64 1022.8
20260507122946 10 330 3.2 6.4 0.00 0.00 0.00 64 1022.8
20260507122441 10 329 9.7 12.9 0.00 0.00 0.00 64 1022.8
20260507121937 10 337 9.7 12.9 0.00 0.00 0.00 64 1022.7
20260507121433 10 307 0.0 3.2 0.00 0.00 0.00 64 1022.6
20260507120930 10 303 1.6 3.2 0.00 0.00 0.00 64 1022.6
20260507120426 10 312 9.7 16.1 0.00 0.00 0.00 64 1022.6
20260507115922 10 303 0.0 0.0 0.00 0.00 0.00 64 1022.4
20260507115419 10 301 1.6 3.2 0.00 0.00 0.00 64 1022.4
20260507114914 10 348 14.5 20.9 0.00 0.00 0.00 64 1022.6
20260507114412 10 274 0.0 3.2 0.00 0.00 0.00 64 1022.5
20260507113909 10 309 0.0 3.2 0.00 0.00 0.00 64 1022.5
20260507113406 10 335 9.7 14.5 0.00 0.00 0.00 64 1022.4
20260507112903 10 334 4.8 9.7 0.00 0.00 0.00 64 1022.6
20260507112400 10 315 3.2 9.7 0.00 0.00 0.00 64 1022.4
20260507111858 10 287 8.0 12.9 0.00 0.00 0.00 64 1022.5
20260507111354 10 286 9.7 11.3 0.00 0.00 0.00 64 1022.3
20260507110850 10 301 9.7 14.5 0.00 0.00 0.00 64 1022.1
20260507110347 10 312 4.8 6.4 0.00 0.00 0.00 64 1022.4
20260507105844 10 316 4.8 6.4 0.00 0.00 0.00 64 1022.3
20260507105340 10 320 4.8 6.4 0.00 0.00 0.00 64 1022.3
20260507104837 10 332 6.4 6.4 0.00 0.00 0.00 64 1021.8
20260507104334 10 307 1.6 4.8 0.00 0.00 0.00 65 1021.9
20260507103830 10 302 6.4 11.3 0.00 0.00 0.00 65 1022.0
20260507103327 10 339 0.0 1.6 0.00 0.00 0.00 65 1022.0
20260507102823 10 338 6.4 11.3 0.00 0.00 0.00 64 1021.8
20260507102320 10 317 14.5 20.9 0.00 0.00 0.00 64 1021.6
20260507101816 10 310 6.4 9.7 0.00 0.00 0.00 64 1021.7
20260507101316 10 325 3.2 4.8 0.00 0.00 0.00 63 1021.7
20260507100813 10 299 4.8 11.3 0.00 0.00 0.00 63 1021.5
20260507100311 11 282 3.2 4.8 0.00 0.00 0.00 63 1021.5
20260507095809 11 329 4.8 6.4 0.00 0.00 0.00 63 1021.4
20260507095306 11 271 6.4 11.3 0.00 0.00 0.00 62 1021.3
20260507094802 11 281 6.4 11.3 0.00 0.00 0.00 62 1021.3
20260507094259 11 327 6.4 14.5 0.00 0.00 0.00 62 1021.1
20260507093756 11 325 14.5 17.7 0.00 0.00 0.00 61 1021.2
20260507093255 11 286 1.6 3.2 0.00 0.00 0.00 61 1020.9
20260507092752 11 306 9.7 16.1 0.00 0.00 0.00 61 1020.8
20260507092248 11 279 4.8 11.3 0.00 0.00 0.00 60 1020.7
20260507091745 11 337 6.4 11.3 0.00 0.00 0.00 60 1020.8
20260507091241 11 319 6.4 6.4 0.00 0.00 0.00 60 1020.7
20260507090736 11 304 6.4 11.3 0.00 0.00 0.00 59 1020.6
20260507090233 11 273 8.0 11.3 0.00 0.00 0.00 59 1020.4
20260507085730 11 309 8.0 17.7 0.00 0.00 0.00 58 1020.6
20260507085227 11 281 1.6 3.2 0.00 0.00 0.00 58 1020.4
20260507084724 11 294 12.9 16.1 0.00 0.00 0.00 59 1020.3
20260507084221 11 324 6.4 11.3 0.00 0.00 0.00 58 1020.4
20260507083718 11 322 1.6 6.4 0.00 0.00 0.00 58 1020.3
20260507083215 11 305 3.2 11.3 0.00 0.00 0.00 58 1020.3
20260507082711 11 255 4.8 9.7 0.00 0.00 0.00 58 1020.3
20260507082207 12 297 6.4 9.7 0.00 0.00 0.00 58 1020.4
20260507081704 12 275 8.0 14.5 0.00 0.00 0.00 57 1020.4
20260507081200 12 302 11.3 16.1 0.00 0.00 0.00 57 1020.4
20260507080657 12 266 1.6 4.8 0.00 0.00 0.00 57 1020.3
20260507080153 12 292 8.0 16.1 0.00 0.00 0.00 57 1020.7
20260507075648 12 318 16.1 20.9 0.00 0.00 0.00 57 1020.3
20260507075144 12 299 11.3 16.1 0.00 0.00 0.00 58 1020.3
20260507074641 12 266 6.4 11.3 0.00 0.00 0.00 57 1020.4
20260507074140 12 285 8.0 14.5 0.00 0.00 0.00 58 1020.5
20260507073636 12 314 14.5 16.1 0.00 0.00 0.00 57 1020.6
20260507073132 12 335 4.8 17.7 0.00 0.00 0.00 58 1020.8
20260507072630 12 278 6.4 11.3 0.00 0.00 0.00 58 1020.9
20260507072127 12 276 1.6 3.2 0.00 0.00 0.00 58 1020.7
20260507071624 12 323 8.0 12.9 0.00 0.00 0.00 58 1020.7
20260507071120 12 267 1.6 3.2 0.00 0.00 0.00 58 1020.3
20260507070618 12 315 1.6 1.6 0.00 0.00 0.00 58 1020.0
20260507070115 12 279 6.4 9.7 0.00 0.00 0.00 58 1020.0
20260507065611 12 284 8.0 11.3 0.00 0.00 0.00 58 1019.6
20260507065108 12 325 16.1 24.1 0.00 0.00 0.00 57 1019.5
20260507064606 12 269 8.0 12.9 0.00 0.00 0.00 57 1019.3
20260507064104 13 288 9.7 16.1 0.00 0.00 0.00 56 1019.2
20260507063601 13 6 8.0 12.9 0.00 0.00 0.00 56 1018.9
20260507063059 13 301 4.8 6.4 0.00 0.00 0.00 55 1019.0
20260507062555 13 287 14.5 20.9 0.00 0.00 0.00 55 1019.1
20260507062053 13 279 14.5 22.5 0.00 0.00 0.00 54 1018.7
20260507061550 13 290 11.3 16.1 0.00 0.00 0.00 54 1018.5
20260507061048 13 322 8.0 11.3 0.00 0.00 0.00 54 1018.5
20260507060546 14 282 6.4 9.7 0.00 0.00 0.00 53 1018.4
20260507060042 14 310 9.7 14.5 0.00 0.00 0.00 53 1018.4
20260507055537 15 321 9.7 17.7 0.00 0.00 0.00 52 1018.4
20260507055034 15 271 11.3 17.7 0.00 0.00 0.00 51 1018.3
20260507054530 15 315 20.9 25.7 0.00 0.00 0.00 50 1018.0
20260507054027 16 320 11.3 20.9 0.00 0.00 0.00 48 1018.1
20260507053525 16 317 8.0 12.9 0.00 0.00 0.00 46 1017.8
20260507053023 17 303 11.3 17.7 0.00 0.00 0.00 41 1017.5
20260507052521 18 305 16.1 20.9 0.00 0.00 0.00 29 1017.4
20260507052017 19 313 4.8 4.8 0.00 0.00 0.00 26 1017.1
20260507051515 20 217 0.0 0.0 0.00 0.00 0.00 24 1016.3
20260507051012 19 212 0.0 0.0 0.00 0.00 0.00 25 1016.2
20260507050508 19 211 0.0 0.0 0.00 0.00 0.00 25 1016.2
20260507050005 19 211 0.0 0.0 0.00 0.00 0.00 25 1016.2
20260507045501 20 211 0.0 0.0 0.00 0.00 0.00 25 1016.3
20260507044959 20 211 0.0 0.0 0.00 0.00 0.00 25 1016.1
20260507044455 20 211 0.0 0.0 0.00 0.00 0.00 25 1016.1
20260507043951 20 211 0.0 0.0 0.00 0.00 0.00 25 1015.9
20260507043448 21 213 0.0 0.0 0.00 0.00 0.00 24 1016.0
20260507042944 21 212 0.0 0.0 0.00 0.00 0.00 24 1016.0
20260507042441 21 226 0.0 0.0 0.00 0.00 0.00 23 1015.8
20260507041937 21 237 4.8 6.4 0.00 0.00 0.00 23 1015.7
20260507041434 21 222 0.0 0.0 0.00 0.00 0.00 24 1015.6
20260507040931 21 249 0.0 0.0 0.00 0.00 0.00 23 1015.8
20260507040432 21 250 0.0 0.0 0.00 0.00 0.00 23 1015.5
20260507035928 21 226 0.0 0.0 0.00 0.00 0.00 23 1015.6
20260507035424 21 215 0.0 0.0 0.00 0.00 0.00 24 1015.5
20260507034921 21 221 1.6 4.8 0.00 0.00 0.00 23 1015.7
20260507034418 22 220 3.2 4.8 0.00 0.00 0.00 23 1015.5
20260507033916 22 218 1.6 4.8 0.00 0.00 0.00 22 1015.3
20260507033414 22 226 0.0 1.6 0.00 0.00 0.00 22 1015.3
20260507032911 22 245 1.6 3.2 0.00 0.00 0.00 21 1015.0
20260507032408 22 238 0.0 3.2 0.00 0.00 0.00 21 1015.1
20260507031903 23 228 3.2 4.8 0.00 0.00 0.00 21 1015.0
20260507031400 23 241 4.8 4.8 0.00 0.00 0.00 20 1015.1
20260507030857 23 266 6.4 9.7 0.00 0.00 0.00 20 1014.9
20260507030354 23 249 0.0 1.6 0.00 0.00 0.00 20 1014.9
20260507025851 23 259 3.2 4.8 0.00 0.00 0.00 21 1014.7
20260507025349 23 247 0.0 1.6 0.00 0.00 0.00 21 1014.7
20260507024846 23 255 1.6 3.2 0.00 0.00 0.00 21 1014.6
20260507024343 23 231 0.0 0.0 0.00 0.00 0.00 21 1014.5
20260507023839 23 250 4.8 9.7 0.00 0.00 0.00 20 1014.6
20260507023336 23 248 3.2 4.8 0.00 0.00 0.00 20 1014.4
20260507022833 23 220 0.0 0.0 0.00 0.00 0.00 20 1014.4
20260507022330 23 232 4.8 6.4 0.00 0.00 0.00 20 1014.4
20260507021826 23 236 3.2 3.2 0.00 0.00 0.00 20 1014.4
20260507021321 23 236 0.0 1.6 0.00 0.00 0.00 20 1014.3
20260507020819 24 231 0.0 0.0 0.00 0.00 0.00 20 1014.3
20260507020315 24 244 4.8 6.4 0.00 0.00 0.00 20 1014.3
20260507015813 25 245 6.4 11.3 0.00 0.00 0.00 19 1014.1
20260507015311 25 257 4.8 6.4 0.00 0.00 0.00 19 1014.0
20260507014807 25 253 4.8 9.7 0.00 0.00 0.00 19 1014.0
20260507014304 25 248 8.0 12.9 0.00 0.00 0.00 18 1013.8
20260507013800 25 244 8.0 11.3 0.00 0.00 0.00 18 1013.8
20260507013258 25 271 8.0 9.7 0.00 0.00 0.00 18 1013.7
20260507012755 25 222 8.0 17.7 0.00 0.00 0.00 18 1013.7
20260507012250 25 243 8.0 14.5 0.00 0.00 0.00 18 1013.6
20260507011748 26 275 6.4 9.7 0.00 0.00 0.00 18 1013.6
20260507011244 26 255 8.0 12.9 0.00 0.00 0.00 18 1013.8
20260507010744 26 263 11.3 16.1 0.00 0.00 0.00 18 1013.4
20260507010240 26 280 12.9 22.5 0.00 0.00 0.00 17 1013.5
20260507005738 26 280 6.4 6.4 0.00 0.00 0.00 17 1013.5
20260507005234 26 276 1.6 3.2 0.00 0.00 0.00 17 1013.3
20260507004731 26 249 1.6 3.2 0.00 0.00 0.00 17 1013.2
20260507004229 27 255 1.6 11.3 0.00 0.00 0.00 18 1013.2
20260507003725 27 235 4.8 9.7 0.00 0.00 0.00 17 1012.9
20260507003220 27 235 8.0 20.9 0.00 0.00 0.00 17 1012.8
20260507002716 27 259 4.8 11.3 0.00 0.00 0.00 17 1012.9
20260507002212 27 285 9.7 12.9 0.00 0.00 0.00 17 1012.8
20260507001709 27 269 6.4 11.3 0.00 0.00 0.00 17 1012.8
20260507001207 27 253 14.5 17.7 0.00 0.00 0.00 16 1012.8
20260507000703 27 262 8.0 9.7 0.00 0.00 0.00 16 1012.8
20260507000158 27 245 12.9 16.1 0.00 0.00 0.00 16 1012.8
20260506235656 27 290 3.2 6.4 0.00 0.00 0.00 17 1012.7
20260506235151 27 276 3.2 9.7 0.00 0.00 0.00 17 1012.5
20260506234648 27 224 6.4 9.7 0.00 0.00 0.00 18 1012.5
20260506234145 27 217 6.4 11.3 0.00 0.00 0.00 17 1012.7
20260506233642 27 261 14.5 25.7 0.00 0.00 0.00 17 1012.6
20260506233139 27 262 11.3 16.1 0.00 0.00 0.00 17 1012.5
20260506232635 27 270 4.8 16.1 0.00 0.00 0.00 17 1012.3
20260506232131 27 248 11.3 20.9 0.00 0.00 0.00 18 1012.4
20260506231628 27 236 8.0 16.1 0.00 0.00 0.00 17 1012.5
20260506231127 27 254 8.0 17.7 0.00 0.00 0.00 18 1012.3
20260506230623 27 248 8.0 14.5 0.00 0.00 0.00 17 1012.5
20260506230120 27 251 3.2 6.4 0.00 0.00 0.00 18 1012.5
20260506225617 27 236 9.7 16.1 0.00 0.00 0.00 18 1012.3
20260506225113 27 261 11.3 20.9 0.00 0.00 0.00 17 1012.3
20260506224610 27 294 6.4 9.7 0.00 0.00 0.00 18 1012.4
20260506224106 27 276 6.4 9.7 0.00 0.00 0.00 18 1012.3
20260506223602 27 292 6.4 12.9 0.00 0.00 0.00 18 1012.5
20260506223059 27 280 22.5 29.0 0.00 0.00 0.00 17 1012.2
20260506222556 27 252 0.0 1.6 0.00 0.00 0.00 18 1012.3
20260506222052 27 267 12.9 20.9 0.00 0.00 0.00 17 1012.3
20260506221550 27 246 8.0 12.9 0.00 0.00 0.00 17 1012.4
20260506221048 27 239 9.7 16.1 0.00 0.00 0.00 18 1012.3
20260506220543 27 237 4.8 11.3 0.00 0.00 0.00 18 1012.5
20260506220039 27 259 12.9 17.7 0.00 0.00 0.00 17 1012.5
20260506215536 27 303 14.5 22.5 0.00 0.00 0.00 17 1012.4
20260506215032 27 222 6.4 11.3 0.00 0.00 0.00 18 1012.6
20260506214529 27 268 16.1 22.5 0.00 0.00 0.00 17 1012.6
20260506214026 27 259 17.7 24.1 0.00 0.00 0.00 16 1012.5
20260506213524 27 248 25.7 35.4 0.00 0.00 0.00 17 1012.5
20260506213021 27 220 8.0 14.5 0.00 0.00 0.00 18 1012.6
20260506212518 27 233 9.7 20.9 0.00 0.00 0.00 16 1012.6
20260506212013 27 219 12.9 16.1 0.00 0.00 0.00 16 1012.5
20260506211509 27 307 3.2 9.7 0.00 0.00 0.00 17 1012.7
20260506211006 27 232 12.9 17.7 0.00 0.00 0.00 16 1012.8
20260506210502 27 256 11.3 17.7 0.00 0.00 0.00 16 1012.8
20260506205959 27 209 11.3 16.1 0.00 0.00 0.00 16 1012.8
20260506205456 27 251 12.9 16.1 0.00 0.00 0.00 16 1012.9
20260506204952 27 236 19.3 24.1 0.00 0.00 0.00 15 1012.9
20260506204450 27 267 14.5 24.1 0.00 0.00 0.00 16 1013.0
20260506203947 26 228 12.9 20.9 0.00 0.00 0.00 17 1013.3
20260506203444 26 230 12.9 20.9 0.00 0.00 0.00 17 1012.8
20260506202941 26 204 14.5 17.7 0.00 0.00 0.00 16 1012.9
20260506202438 27 282 19.3 29.0 0.00 0.00 0.00 16 1013.0
20260506201934 27 265 9.7 12.9 0.00 0.00 0.00 16 1013.3
20260506201432 26 286 12.9 14.5 0.00 0.00 0.00 15 1013.2
20260506200928 27 209 14.5 20.9 0.00 0.00 0.00 16 1013.2
20260506200425 26 246 12.9 20.9 0.00 0.00 0.00 16 1013.3
20260506195916 26 254 12.9 16.1 0.00 0.00 0.00 17 1013.4
20260506195413 26 259 14.5 24.1 0.00 0.00 0.00 16 1013.6
20260506194910 26 221 14.5 24.1 0.00 0.00 0.00 16 1013.5
20260506194407 26 239 4.8 9.7 0.00 0.00 0.00 18 1013.5
20260506193904 27 222 9.7 16.1 0.00 0.00 0.00 18 1013.5
20260506193401 26 239 14.5 17.7 0.00 0.00 0.00 18 1013.7
20260506192857 26 263 11.3 20.9 0.00 0.00 0.00 19 1013.6
20260506192354 26 243 16.1 24.1 0.00 0.00 0.00 19 1013.6
20260506191851 26 246 11.3 25.7 0.00 0.00 0.00 19 1013.7
20260506191347 26 212 3.2 4.8 0.00 0.00 0.00 20 1013.7
20260506190844 26 273 24.1 33.8 0.00 0.00 0.00 19 1013.9
20260506190340 26 241 4.8 11.3 0.00 0.00 0.00 20 1014.0
20260506185837 26 241 8.0 12.9 0.00 0.00 0.00 20 1013.8
20260506185334 26 228 3.2 6.4 0.00 0.00 0.00 22 1014.0
20260506184831 26 238 6.4 12.9 0.00 0.00 0.00 21 1014.0
20260506184328 26 220 19.3 25.7 0.00 0.00 0.00 21 1014.1
20260506183826 25 310 12.9 22.5 0.00 0.00 0.00 21 1014.0
20260506183320 25 248 16.1 17.7 0.00 0.00 0.00 20 1014.3
20260506182818 25 196 6.4 9.7 0.00 0.00 0.00 21 1014.3
20260506182315 25 253 6.4 16.1 0.00 0.00 0.00 21 1014.5
20260506181813 25 239 6.4 14.5 0.00 0.00 0.00 21 1014.5
20260506181310 25 270 11.3 14.5 0.00 0.00 0.00 22 1014.7
20260506180807 25 271 3.2 6.4 0.00 0.00 0.00 23 1014.7